一网星座-0415星 (ONEWEB-0415 )

导读 | 豆包AI

ONEWEB-0415是英国OneWeb星座旗下的低轨通信卫星,于2022年2月10日发射入轨,运行在高度约1200公里、倾角87.9°的近地轨道上。OneWeb星座主打全球低轨互联网接入服务,相比高轨卫星传输延迟更低,该卫星后续可为全球偏远地区及网络覆盖薄弱区域提供宽带通信支撑,也可辅助增强空天地一体化通信网络覆盖能力。

基本信息
目录编号:
51624
目录名称:
ONEWEB-0415
国际标识:
2022-012C
轨道中心:
EARTH
卫星名称:
一网星座-0415星
卫星全名:
一网星座-0415星 (ONEWEB-0415 )
卫星状态:
在轨 (已飞行1493 天)
发射日期:
2022-02-10 UTC
国别 :
英国 (GB)
星等 :
--
轨道信息
数据来源 国际轨道数据 AOE轨道数据
星历时间 2026-03-14T06:40:14+0800
7小时前
查看轨道信息
2026-03-12T10:00:00+0800
2天前
查看轨道信息
半长轴 7599.859km 7599.888km
偏心率 0.0002172 0.0002243
轨道倾角 87.878° 87.877°
近地点辐角 83.165° 82.966°
升交点赤经 55.225° 55.599°
平近点角 276.973° 141.902°
近地点 1220.071km 1220.046km
远地点 1223.373km 1223.456km
周期 109.892分钟 109.893分钟
每日圈数 13.103716 13.103643
详细信息
平衡模式:
三轴稳定
覆盖范围:
全球
运营商:
一网卫星公司
运营商所在国:
英国
制造商(研发单位):
一网卫星公司
制造商所在国:
英国
使用方式:
暂无
卫星简介
OneWeb卫星网络由648颗重约125公斤的微型卫星组成,运行在1200公里的轨道上。 每颗卫星都能够提供至少每秒8千兆位的吞吐量,以使用其高吞吐量的Ku频段有效载荷为家庭和移动平台提供互联网接入。该卫星仍在工作。
2D轨道图
3D轨道图
轨道高度分析图
轨道倾角分析图
轨道综合分析图
查看轨道综合分析图